TKJ2QD LTAC-LTCG

Flight info

Callsign TKJ2QD
Flight time 0h 54m
Altitude 27000
Route ILHAN W71 ERGUN/N0434F350 UW71 TEMEL
Aircraft B738/M-SDE2E3FGHIRWXY/LB1

Departure

Time 2026-04-27 19:44
Airport Esenboğa International Airport (LTAC)

Arrival

Time 2026-04-27 20:38
Airport Trabzon International Airport (LTCG)
Time Latitude Longitude Altitude Speed Heading
2026-04-27 19:34 40.11337 32.98787 3092 ft 0 kts 173°
2026-04-27 19:40 40.11319 32.98776 3090 ft 12 kts 220°
2026-04-27 19:40 40.11284 32.98648 3089 ft 20 kts 244°
2026-04-27 19:40 40.11277 32.98588 3085 ft 0 kts 282°
2026-04-27 19:41 40.11281 32.98570 3085 ft 9 kts 292°
2026-04-27 19:41 40.11327 32.98486 3090 ft 11 kts 308°
2026-04-27 19:41 40.11355 32.98440 3089 ft 0 kts 308°
2026-04-27 19:42 40.11356 32.98439 3088 ft 2 kts 308°
2026-04-27 19:42 40.11415 32.98336 3087 ft 25 kts 304°
2026-04-27 19:43 40.11538 32.98167 3091 ft 27 kts 358°
2026-04-27 19:43 40.11698 32.98291 3083 ft 34 kts 36°
2026-04-27 19:43 40.12105 32.98681 3098 ft 110 kts 36°
2026-04-27 19:43 40.12906 32.99443 3167 ft 169 kts 36°
2026-04-27 19:44 40.13922 33.00434 3719 ft 195 kts 39°
2026-04-27 19:44 40.14949 33.01497 4710 ft 190 kts 39°
2026-04-27 19:44 40.16033 33.02636 5162 ft 212 kts 39°
2026-04-27 19:44 40.17242 33.03914 5395 ft 234 kts 39°
2026-04-27 19:45 40.18534 33.05284 5889 ft 243 kts 39°
2026-04-27 19:45 40.19857 33.06689 6544 ft 247 kts 40°
2026-04-27 19:45 40.21200 33.08117 7319 ft 250 kts 40°
2026-04-27 19:45 40.22369 33.09791 8097 ft 256 kts 60°
2026-04-27 19:46 40.23197 33.11940 8590 ft 272 kts 64°
2026-04-27 19:46 40.24001 33.14172 9335 ft 277 kts 65°
2026-04-27 19:46 40.24826 33.16471 10148 ft 281 kts 65°
2026-04-27 19:46 40.25638 33.18725 10566 ft 299 kts 64°
2026-04-27 19:47 40.26564 33.21286 10799 ft 322 kts 64°
2026-04-27 19:47 40.27546 33.23990 11302 ft 336 kts 63°
2026-04-27 19:47 40.28571 33.26803 11852 ft 346 kts 63°
2026-04-27 19:47 40.29610 33.29652 12669 ft 347 kts 63°
2026-04-27 19:48 40.30655 33.32517 13444 ft 350 kts 63°
2026-04-27 19:48 40.31712 33.35413 14175 ft 354 kts 63°
2026-04-27 19:48 40.32780 33.38341 14871 ft 358 kts 63°
2026-04-27 19:48 40.33860 33.41303 15583 ft 362 kts 63°
2026-04-27 19:49 40.34934 33.44255 16266 ft 365 kts 63°
2026-04-27 19:49 40.36031 33.47274 16918 ft 369 kts 63°
2026-04-27 19:49 40.37141 33.50327 17560 ft 372 kts 63°
2026-04-27 19:49 40.38258 33.53407 18197 ft 376 kts 63°
2026-04-27 19:50 40.39385 33.56518 18804 ft 379 kts 63°
2026-04-27 19:50 40.40522 33.59659 19371 ft 384 kts 63°
2026-04-27 19:50 40.41672 33.62838 19941 ft 388 kts 63°
2026-04-27 19:50 40.42832 33.66045 20499 ft 391 kts 63°
2026-04-27 19:51 40.44003 33.69289 21041 ft 395 kts 63°
2026-04-27 19:51 40.45101 33.72613 21557 ft 399 kts 69°
2026-04-27 19:51 40.45976 33.76035 22061 ft 403 kts 71°
2026-04-27 19:51 40.46801 33.79568 22563 ft 406 kts 72°
2026-04-27 19:52 40.47635 33.83131 23046 ft 410 kts 71°
2026-04-27 19:52 40.48502 33.86712 23495 ft 413 kts 71°
2026-04-27 19:52 40.49399 33.90317 23943 ft 417 kts 71°
2026-04-27 19:52 40.50310 33.93945 24416 ft 419 kts 70°
2026-04-27 19:53 40.52411 34.01144 25259 ft 425 kts 66°
2026-04-27 19:53 40.53543 34.04744 25699 ft 427 kts 66°
2026-04-27 19:53 40.54683 34.08359 26116 ft 430 kts 66°
2026-04-27 19:54 40.55810 34.11952 26494 ft 432 kts 66°
2026-04-27 19:54 40.56949 34.15623 26825 ft 435 kts 67°
2026-04-27 19:54 40.58090 34.19331 27166 ft 439 kts 67°
2026-04-27 19:54 40.59233 34.23066 27544 ft 441 kts 67°
2026-04-27 19:55 40.60376 34.26814 27927 ft 443 kts 67°
2026-04-27 19:55 40.61524 34.30584 28246 ft 445 kts 67°
2026-04-27 19:55 40.62679 34.34381 28555 ft 448 kts 68°
2026-04-27 19:55 40.63839 34.38202 28880 ft 451 kts 68°
2026-04-27 19:56 40.64991 34.41996 29184 ft 453 kts 68°
2026-04-27 19:56 40.66162 34.45862 29497 ft 455 kts 68°
2026-04-27 19:56 40.67335 34.49744 29808 ft 457 kts 68°
2026-04-27 19:56 40.68511 34.53640 30155 ft 458 kts 68°
2026-04-27 19:57 40.69683 34.57529 30588 ft 456 kts 68°
2026-04-27 19:57 40.70850 34.61402 31043 ft 453 kts 68°
2026-04-27 19:57 40.72011 34.65267 31374 ft 454 kts 68°
2026-04-27 19:57 40.73176 34.69143 31651 ft 456 kts 68°
2026-04-27 19:58 40.74340 34.73026 32004 ft 455 kts 68°
2026-04-27 19:58 40.75482 34.76850 32400 ft 453 kts 68°
2026-04-27 19:58 40.76628 34.80720 32764 ft 453 kts 68°
2026-04-27 19:58 40.77769 34.84587 33075 ft 453 kts 68°
2026-04-27 19:59 40.78908 34.88457 33372 ft 453 kts 68°
2026-04-27 19:59 40.80048 34.92333 33680 ft 453 kts 68°
2026-04-27 19:59 40.81184 34.96199 34022 ft 451 kts 68°
2026-04-27 19:59 40.82315 35.00055 34348 ft 450 kts 68°
2026-04-27 20:00 40.83445 35.03911 34607 ft 451 kts 68°
2026-04-27 20:00 40.84577 35.07775 34834 ft 452 kts 68°
2026-04-27 20:00 40.85692 35.11592 35081 ft 452 kts 68°
2026-04-27 20:00 40.86826 35.15476 35195 ft 455 kts 68°
2026-04-27 20:01 40.89110 35.23322 35197 ft 458 kts 68°
2026-04-27 20:01 40.91377 35.31133 35181 ft 451 kts 68°
2026-04-27 20:02 40.93618 35.38868 35183 ft 451 kts 68°
2026-04-27 20:02 40.95838 35.46561 35178 ft 450 kts 68°
2026-04-27 20:03 40.98075 35.54305 35183 ft 451 kts 68°
2026-04-27 20:03 41.00309 35.62060 35186 ft 451 kts 68°
2026-04-27 20:04 41.02543 35.69836 35187 ft 452 kts 68°
2026-04-27 20:04 41.04431 35.76291 35196 ft 452 kts 68°
2026-04-27 20:05 41.07092 35.85330 35203 ft 454 kts 68°
2026-04-27 20:05 41.09370 35.93133 35204 ft 454 kts 68°
2026-04-27 20:06 41.11597 36.00974 35211 ft 455 kts 68°
2026-04-27 20:06 41.13797 36.08838 35221 ft 455 kts 69°
2026-04-27 20:07 41.15980 36.16655 35237 ft 455 kts 68°
2026-04-27 20:07 41.18179 36.24525 35249 ft 455 kts 69°
2026-04-27 20:08 41.20374 36.32408 35258 ft 455 kts 69°
2026-04-27 20:08 41.22567 36.40305 35264 ft 456 kts 69°
2026-04-27 20:09 41.24741 36.48158 35269 ft 456 kts 69°
2026-04-27 20:09 41.26262 36.56322 35269 ft 458 kts 85°
2026-04-27 20:10 41.25996 36.64744 35269 ft 455 kts 96°
2026-04-27 20:10 41.25301 36.72927 34866 ft 438 kts 97°
2026-04-27 20:11 41.24968 36.76918 34522 ft 433 kts 96°
2026-04-27 20:11 41.24649 36.80885 34152 ft 430 kts 96°
2026-04-27 20:11 41.24345 36.84763 33789 ft 427 kts 96°
2026-04-27 20:11 41.24044 36.88667 33414 ft 423 kts 96°
2026-04-27 20:12 41.23746 36.92544 33035 ft 420 kts 96°
2026-04-27 20:12 41.23550 36.95096 32790 ft 419 kts 96°
2026-04-27 20:12 41.23154 37.00220 32294 ft 415 kts 96°
2026-04-27 20:12 41.22858 37.04024 31926 ft 412 kts 96°
2026-04-27 20:13 41.22562 37.07798 31560 ft 410 kts 96°
2026-04-27 20:13 41.22267 37.11552 31201 ft 407 kts 96°
2026-04-27 20:13 41.21974 37.15281 30840 ft 405 kts 96°
2026-04-27 20:13 41.21679 37.18988 30488 ft 402 kts 96°
2026-04-27 20:14 41.21390 37.22619 30138 ft 400 kts 96°
2026-04-27 20:14 41.21115 37.26268 29872 ft 394 kts 96°
2026-04-27 20:14 41.20856 37.29877 29511 ft 392 kts 95°
2026-04-27 20:14 41.20602 37.33464 29159 ft 389 kts 95°
2026-04-27 20:15 41.20347 37.37029 28798 ft 386 kts 95°
2026-04-27 20:15 41.20091 37.40567 28439 ft 384 kts 95°
2026-04-27 20:15 41.19835 37.44086 28077 ft 382 kts 95°
2026-04-27 20:15 41.19579 37.47584 27717 ft 379 kts 95°
2026-04-27 20:16 41.19326 37.51014 27359 ft 377 kts 95°
2026-04-27 20:16 41.19069 37.54469 27005 ft 375 kts 95°
2026-04-27 20:16 41.18844 37.57906 26660 ft 372 kts 94°
2026-04-27 20:16 41.18687 37.61327 26329 ft 370 kts 92°
2026-04-27 20:17 41.18509 37.64724 25986 ft 368 kts 95°
2026-04-27 20:17 41.18227 37.68087 25639 ft 366 kts 97°
2026-04-27 20:17 41.17915 37.71429 25297 ft 364 kts 97°
2026-04-27 20:17 41.17709 37.73629 25065 ft 363 kts 97°
2026-04-27 20:18 41.17309 37.78015 24609 ft 360 kts 96°
2026-04-27 20:18 41.17018 37.81305 24267 ft 358 kts 96°
2026-04-27 20:18 41.16732 37.84580 23928 ft 356 kts 96°
2026-04-27 20:18 41.16448 37.87833 23583 ft 355 kts 96°
2026-04-27 20:19 41.16176 37.91081 23254 ft 353 kts 95°
2026-04-27 20:19 41.15921 37.94309 22922 ft 351 kts 95°
2026-04-27 20:19 41.15672 37.97519 22587 ft 349 kts 95°
2026-04-27 20:19 41.15423 38.00714 22252 ft 347 kts 95°
2026-04-27 20:20 41.15174 38.03892 21921 ft 346 kts 95°
2026-04-27 20:20 41.14923 38.07057 21586 ft 344 kts 95°
2026-04-27 20:20 41.14675 38.10168 21257 ft 343 kts 95°
2026-04-27 20:20 41.14424 38.13302 20930 ft 341 kts 95°
2026-04-27 20:21 41.14173 38.16423 20595 ft 340 kts 95°
2026-04-27 20:21 41.13923 38.19528 20266 ft 338 kts 95°
2026-04-27 20:21 41.13672 38.22619 19935 ft 336 kts 95°
2026-04-27 20:21 41.13422 38.25698 19610 ft 335 kts 95°
2026-04-27 20:22 41.13172 38.28761 19284 ft 333 kts 95°
2026-04-27 20:22 41.12920 38.31805 18959 ft 331 kts 95°
2026-04-27 20:22 41.12671 38.34794 18648 ft 330 kts 95°
2026-04-27 20:22 41.12421 38.37809 18326 ft 328 kts 95°
2026-04-27 20:23 41.12170 38.40808 18001 ft 326 kts 95°
2026-04-27 20:23 41.11920 38.43792 17687 ft 325 kts 95°
2026-04-27 20:23 41.11670 38.46763 17368 ft 323 kts 95°
2026-04-27 20:23 41.11421 38.49721 17051 ft 322 kts 95°
2026-04-27 20:24 41.11173 38.52664 16735 ft 320 kts 95°
2026-04-27 20:24 41.10926 38.55594 16420 ft 319 kts 95°
2026-04-27 20:24 41.10678 38.58509 16111 ft 318 kts 95°
2026-04-27 20:24 41.10435 38.61372 15798 ft 316 kts 95°
2026-04-27 20:25 41.10194 38.64255 15496 ft 314 kts 95°
2026-04-27 20:25 41.09956 38.67122 15189 ft 312 kts 95°
2026-04-27 20:25 41.09718 38.69977 14882 ft 311 kts 95°
2026-04-27 20:25 41.09470 38.72818 14580 ft 309 kts 95°
2026-04-27 20:26 41.09214 38.75642 14277 ft 308 kts 95°
2026-04-27 20:26 41.08957 38.78449 13969 ft 306 kts 95°
2026-04-27 20:26 41.08701 38.81245 13666 ft 305 kts 95°
2026-04-27 20:26 41.08446 38.84025 13357 ft 303 kts 95°
2026-04-27 20:27 41.08196 38.86757 13057 ft 302 kts 95°
2026-04-27 20:27 41.07943 38.89511 12750 ft 300 kts 95°
2026-04-27 20:27 41.07691 38.92250 12453 ft 299 kts 95°
2026-04-27 20:27 41.07439 38.94978 12150 ft 297 kts 95°
2026-04-27 20:28 41.07189 38.97692 11857 ft 296 kts 95°
2026-04-27 20:28 41.06938 39.00418 11346 ft 302 kts 96°
2026-04-27 20:28 41.06685 39.03150 10985 ft 295 kts 96°
2026-04-27 20:28 41.06521 39.04918 10777 ft 289 kts 96°
2026-04-27 20:29 41.06199 39.08359 10375 ft 279 kts 96°
2026-04-27 20:29 41.05962 39.10892 10118 ft 276 kts 96°
2026-04-27 20:29 41.05786 39.13383 9975 ft 268 kts 86°
2026-04-27 20:29 41.06271 39.15768 9604 ft 272 kts 66°
2026-04-27 20:30 41.07011 39.18117 9209 ft 280 kts 67°
2026-04-27 20:30 41.07746 39.20521 8786 ft 284 kts 68°
2026-04-27 20:30 41.08482 39.22963 8358 ft 287 kts 68°
2026-04-27 20:30 41.09225 39.25434 7922 ft 290 kts 68°
2026-04-27 20:31 41.09968 39.27921 7462 ft 288 kts 68°
2026-04-27 20:31 41.10689 39.30341 7034 ft 284 kts 68°
2026-04-27 20:31 41.11408 39.32758 6607 ft 279 kts 68°
2026-04-27 20:31 41.12114 39.35133 6192 ft 275 kts 69°
2026-04-27 20:32 41.12373 39.37586 5829 ft 268 kts 102°
2026-04-27 20:32 41.11670 39.39802 5600 ft 256 kts 118°
2026-04-27 20:32 41.10873 39.41879 5317 ft 249 kts 116°
2026-04-27 20:32 41.10147 39.43928 5058 ft 242 kts 115°
2026-04-27 20:33 41.09464 39.45930 4817 ft 235 kts 114°
2026-04-27 20:33 41.08810 39.47872 4593 ft 232 kts 114°
2026-04-27 20:33 41.08240 39.49836 4352 ft 226 kts 99°
2026-04-27 20:33 41.08161 39.51879 4127 ft 219 kts 98°
2026-04-27 20:34 41.07593 39.53707 3901 ft 212 kts 119°
2026-04-27 20:34 41.06918 39.55402 3687 ft 205 kts 117°
2026-04-27 20:34 41.06315 39.57076 3470 ft 198 kts 114°
2026-04-27 20:34 41.05779 39.58715 3368 ft 192 kts 112°
2026-04-27 20:35 41.05264 39.60388 3091 ft 198 kts 112°
2026-04-27 20:35 41.04745 39.62067 2797 ft 195 kts 112°
2026-04-27 20:35 41.04247 39.63671 2523 ft 186 kts 113°
2026-04-27 20:35 41.03772 39.65201 2271 ft 173 kts 113°
2026-04-27 20:36 41.03337 39.66605 2051 ft 158 kts 113°
2026-04-27 20:36 41.02929 39.67918 1813 ft 152 kts 112°
2026-04-27 20:36 41.02525 39.69219 1592 ft 153 kts 112°
2026-04-27 20:36 41.02117 39.70538 1366 ft 155 kts 112°
2026-04-27 20:37 41.01708 39.71859 1138 ft 155 kts 112°
2026-04-27 20:37 41.01300 39.73177 911 ft 154 kts 112°
2026-04-27 20:37 41.00905 39.74508 643 ft 157 kts 111°
2026-04-27 20:37 41.00491 39.75821 409 ft 157 kts 112°
2026-04-27 20:38 41.00077 39.77144 208 ft 155 kts 112°
2026-04-27 20:38 40.99677 39.78435 89 ft 142 kts 112°
2026-04-27 20:38 40.99370 39.79423 86 ft 80 kts 112°
2026-04-27 20:38 40.99191 39.80002 86 ft 42 kts 113°
2026-04-27 20:39 40.99064 39.80295 84 ft 18 kts 142°
2026-04-27 20:39 40.99065 39.80374 84 ft 9 kts 354°
2026-04-27 20:39 40.99100 39.80299 83 ft 13 kts 293°
2026-04-27 20:39 40.99148 39.80148 87 ft 22 kts 289°
2026-04-27 20:40 40.99209 39.79942 90 ft 26 kts 292°
2026-04-27 20:40 40.99282 39.79704 87 ft 30 kts 292°
2026-04-27 20:40 40.99349 39.79487 88 ft 21 kts 292°
2026-04-27 20:40 40.99390 39.79354 87 ft 18 kts 292°
2026-04-27 20:41 40.99358 39.79194 89 ft 21 kts 247°
2026-04-27 20:41 40.99354 39.78996 87 ft 19 kts 293°
2026-04-27 20:41 40.99409 39.78821 87 ft 20 kts 291°
2026-04-27 20:41 40.99459 39.78652 90 ft 18 kts 291°
2026-04-27 20:42 40.99475 39.78558 89 ft 10 kts 270°
2026-04-27 20:42 40.99445 39.78522 89 ft 6 kts 204°
2026-04-27 20:42 40.99423 39.78510 90 ft 0 kts 202°
2026-04-27 20:43 40.99415 39.78523 87 ft 0 kts 232°